SCP
0 0 0 0 0 0 0 0 0 1 0 0 0 1 1 1 1 1 1 1 0 0 1 1 1 1 2 2 2 2 1 1 1 1 1 1 0 0
0 0 0 0 0 0 0 0 0 0 0 0 0 0 1 1 1 1 1 1 1 0 0 1 1 1 1 2 1 1 1 0 0 0 0 0 0 0
0 0 0 0 0 0 0 0 0 0 0 0 0 0 1 1 1 1 1 1 1 0 0 0 1 1 1 1 1 0 0 0 0 0 0 0 0 0
0 0 0 0 0 0 0 0 0 0 0 0 0 0 1 1 1 1 1 1 1 0 0 0 0 1 1 1 0 0 0 0 0 0 0 0 0 0
0 0 0 0 0 0 0 0 0 0 0 0 0 1 1 1 2 1 1 1 1 0 0 0 0 0 0 0 0 0 0 0 0 0 0 0 0 0
0 0 0 0 0 0 0 0 0 0 0 0 1 1 1 1 1 1 1 1 1 0 0 0 0 0 0 0 0 0 0 0 0 0 0 0 0 0
0 0 0 0 0 0 0 0 0 0 0 0 1 1 1 1 1 1 1 1 1 1 0 0 0 0 0 0 0 0 0 0 0 0 0 0 0 0
0 0 0 0 0 0 0 0 0 0 0 0 0 0 1 1 1 1 1 1 1 0 0 0 0 0 0 0 0 0 0 0 0 0 0 0 0 0
0 0 0 0 0 0 0 0 0 0 0 0 0 0 0 0 1 1 1 1 0 0 0 0 0 0 0 0 0 0 0 0 0 0 0 0 0 0
0 0 0 0 0 0 0 0 0 0 0 0 0 0 0 0 0 0 0 0 0 0 0 0 0 0 0 0 0 0 0 0 0 0 0 0 0 0
0 0 0 0 0 0 0 0 0 0 0 0 0 0 0 0 0 0 0 0 0 0 0 0 0 0 0 0 0 0 0 0 0 0 0 0 0 0
0 0 0 0 0 0 0 0 0 0 0 0 0 0 0 0 0 0 0 0 0 0 0 0 0 0 0 0 0 0 0 0 0 0 0 0 0 0
0 0 0 0 0 0 0 0 0 0 0 0 0 0 0 0 0 0 0 0 0 0 0 0 0 0 0 0 0 0 0 0 0 0 0 0 0 0
0 0 0 0 0 0 0 0 0 0 0 0 0 0 0 0 0 0 0 0 0 0 0 0 0 0 0 0 0 0 0 0 0 0 0 0 0 0
0 0 0 0 0 0 0 0 0 0 0 0 0 0 0 0 0 0 0 0 0 0 0 0 0 0 0 0 0 0 0 0 0 0 0 0 0 0
0 0 0 0 0 0 0 0 0 0 0 0 0 0 0 0 0 0 0 0 0 0 0 0 0 0 0 0 0 0 0 0 0 0 0 0 0 0
0 0 0 0 0 0 0 0 0 0 0 0 0 0 0 0 0 0 0 0 0 0 0 0 0 0 0 0 0 0 0 0 0 0 0 0 0 0
0 0 0 0 0 0 0 0 0 0 0 0 0 0 0 0 0 0 0 0 0 0 0 0 0 0 0 0 0 0 0 0 0 0 0 0 0 0
0 0 0 0 0 0 0 0 0 0 0 0 0 0 0 0 0 0 0 0 0 0 0 0 0 0 0 0 0 0 0 0 0 0 0 0 0 0
0 0 0 0 0 0 0 0 0 0 0 0 0 0 0 0 0 0 0 0 0 0 0 0 0 0 0 0 0 0 0 0 0 0 0 0 0 0
0 0 0 0 0 0 0 0 0 0 0 0 0 0 0 0 0 0 0 0 0 0 0 0 0 0 0 0 0 0 0 0 0 0 0 0 0 0
0 0 0 0 0 0 0 0 0 0 0 0 0 0 0 0 0 0 0 0 0 0 0 0 0 0 0 0 0 0 0 0 0 0 0 0 0 0
0 0 0 0 0 0 0 0 0 0 0 0 0 0 0 0 0 0 0 0 0 0 0 0 0 0 0 0 0 0 0 0 0 0 0 0 0 0
Wind_Speed
12 13 12 11 11 12 11 10 11 12 12 13 9 10 8 7 7 9 10 12 14 15 16 17 17 18 18 19 19 19 18 17 16 15 15 15 14 13
11 11 11 9 10 11 11 10 10 12 12 9 9 8 9 6 8 8 7 11 11 11 12 15 17 19 19 20 21 21 20 19 18 18 18 17 16 15
13 12 11 10 8 9 10 10 11 10 11 9 5 6 9 9 8 7 8 8 8 13 15 15 16 17 19 20 20 20 20 19 19 19 19 18 17 15
14 13 13 10 10 8 8 10 11 12 10 10 7 6 8 10 10 10 8 7 7 13 16 16 16 17 17 17 17 17 17 17 17 18 18 18 16 15
13 13 13 13 11 8 7 8 9 10 10 10 8 6 5 6 10 10 11 9 8 10 15 16 17 17 17 17 17 16 16 16 16 15 14 15 14 13
12 12 12 13 13 10 6 6 6 8 10 8 8 7 7 7 9 11 10 9 8 9 9 10 14 16 17 17 17 16 16 16 16 15 13 12 11 11
12 12 12 16 19 15 8 6 5 3 4 6 7 7 7 8 8 8 10 9 8 7 9 9 10 9 10 14 14 15 15 15 15 15 14 13 11 11
12 12 12 13 17 20 21 20 16 8 4 1 4 7 7 6 6 8 10 10 6 5 9 8 8 9 8 9 13 16 16 16 16 15 15 14 12 12
12 12 10 12 14 12 16 20 21 25 20 10 11 8 7 7 3 7 8 9 7 6 9 7 6 8 7 9 16 17 18 17 17 17 15 14 12 11
11 12 11 13 14 13 12 13 15 18 19 14 14 13 12 10 8 5 7 9 8 6 4 6 5 6 8 9 16 18 19 18 17 16 15 13 12 10
11 11 12 14 21 20 14 13 14 14 19 25 26 25 28 27 17 6 5 7 5 4 5 4 5 6 6 8 11 16 16 16 16 15 13 12 9 7
9 11 19 20 23 22 15 13 14 13 12 14 18 20 19 22 24 14 8 4 5 4 4 3 5 5 5 4 5 5 8 13 14 13 11 9 5 2
7 9 13 23 24 23 19 14 15 12 11 12 12 13 13 13 14 14 13 9 6 5 4 2 4 4 6 5 3 3 4 4 5 7 9 8 6 3
6 8 12 21 22 23 18 19 19 14 9 10 10 11 11 10 11 12 14 14 12 10 9 5 4 4 5 5 5 4 4 3 3 3 4 4 4 3
8 15 18 19 17 15 21 22 16 11 10 10 10 10 9 9 8 8 10 12 13 13 12 12 8 5 5 6 6 6 5 4 3 3 2 1 1 1
10 13 16 18 15 15 15 13 11 11 10 9 9 8 8 8 8 7 6 5 8 9 11 11 10 9 7 8 7 6 5 5 3 2 1 1 1 1
8 8 9 9 9 9 10 10 10 10 10 10 9 9 9 9 9 8 7 7 7 7 7 7 7 8 9 6 6 5 5 4 3 2 2 2 2 2
10 8 8 8 9 9 8 9 9 9 9 9 9 9 8 8 8 7 8 7 7 7 6 6 4 4 5 7 9 4 4 3 2 2 2 3 4 2
9 8 7 7 7 7 7 7 7 7 7 7 7 7 7 7 7 7 6 6 6 6 6 6 5 2 3 4 5 7 3 2 1 1 2 3 5 5
7 7 6 6 6 5 5 5 5 5 5 5 5 6 6 6 5 5 6 6 5 5 5 5 6 7 5 4 2 2 3 3 2 3 3 4 5 8
6 5 5 5 5 4 4 4 4 4 4 4 4 4 4 4 4 4 4 5 4 4 4 4 4 5 3 1 1 0 1 1 4 4 5 5 5 4
4 4 4 4 4 4 4 4 3 3 3 2 2 2 2 3 3 3 3 3 2 3 3 2 2 2 1 2 2 3 3 3 4 9 11 9 5 4
4 4 4 4 4 3 3 3 4 3 3 2 2 2 2 2 2 2 2 2 2 2 3 3 2 1 2 2 3 4 5 6 5 5 5 8 13 16
Wind_Direction
290 275 264 258 255 253 251 251 254 249 240 233 217 208 202 206 197 207 216 197 201 206 207 204 196 186 178 172 169 163 152 146 146 147 147 147 143 136
310 297 282 268 258 252 246 242 246 251 254 246 222 202 189 191 190 199 185 154 158 163 168 172 166 157 153 150 147 146 147 146 145 146 145 143 139 133
328 324 317 302 281 263 252 242 237 238 246 252 220 199 187 182 172 171 149 141 132 128 128 128 131 133 135 137 140 145 147 145 145 146 145 143 139 134
336 339 340 330 314 286 266 252 242 232 231 231 203 191 188 181 171 160 144 132 127 127 123 121 122 124 127 130 136 140 141 141 142 143 145 144 140 134
342 343 342 340 333 315 294 270 252 237 225 222 200 180 164 168 163 150 142 132 129 135 130 132 133 135 137 139 141 141 138 138 137 138 141 139 136 131
345 344 342 345 342 334 320 305 271 240 223 209 185 171 154 163 160 149 141 136 136 140 133 135 137 138 143 146 145 141 139 138 137 134 130 126 123 122
347 347 345 354 356 2 6 355 330 275 222 191 173 159 152 159 160 151 139 126 117 136 135 139 141 140 140 139 136 139 138 135 134 132 128 122 118 115
350 350 352 358 2 6 19 31 32 24 17 69 132 130 119 124 135 140 137 140 130 117 114 111 133 137 144 148 142 137 133 131 129 128 126 122 116 110
353 354 -0 5 12 8 17 28 32 36 39 47 58 52 56 34 90 149 160 150 119 130 126 100 92 91 85 105 124 127 125 124 123 122 120 116 111 106
359 359 10 19 23 24 25 33 37 35 38 44 52 50 48 35 25 45 95 93 82 42 74 110 94 80 75 78 94 107 113 116 116 115 113 111 109 105
5 17 30 34 33 33 31 35 37 33 36 47 50 49 46 44 37 44 93 124 107 54 28 96 114 93 71 60 72 90 101 106 107 108 108 109 112 124
13 28 40 41 38 39 35 35 38 33 34 38 42 42 42 40 40 36 27 73 99 87 29 80 114 116 100 66 52 59 83 94 96 99 99 96 99 146
20 32 42 44 42 41 41 39 41 41 41 45 46 45 45 43 41 41 39 42 65 71 26 70 101 101 112 120 98 77 88 105 106 102 93 83 64 32
34 41 45 47 44 42 41 38 39 40 42 45 47 45 44 45 48 50 52 54 54 52 32 42 87 113 121 120 126 132 129 134 133 125 115 115 106 84
58 62 55 49 44 41 39 38 36 35 38 44 45 44 42 45 50 58 62 63 58 51 42 40 54 74 88 117 130 146 145 139 127 116 105 81 37 351
45 52 52 51 47 42 39 37 35 36 36 39 41 41 40 43 43 40 50 58 64 58 50 48 49 63 81 93 110 124 128 132 132 91 18 331 291 279
44 43 41 39 38 37 38 38 36 33 36 35 34 36 36 38 38 35 43 58 63 60 51 48 59 63 58 69 103 107 113 110 91 39 346 316 297 286
47 44 40 37 35 33 33 35 35 34 33 34 34 33 33 33 38 39 44 52 59 53 45 36 64 104 91 60 33 88 103 95 66 11 336 314 299 288
45 42 38 33 30 28 29 30 32 32 29 33 34 30 29 31 35 38 41 50 55 54 44 31 24 33 120 114 74 28 57 62 10 330 315 302 296 301
38 36 33 28 23 20 20 20 20 22 25 26 31 30 25 25 32 37 41 40 46 53 57 47 37 27 32 48 68 96 41 350 334 321 317 306 290 283
26 25 21 17 15 12 9 7 6 10 14 8 20 22 19 21 27 29 36 38 35 41 47 50 40 8 351 323 266 221 71 310 304 302 312 306 302 292
5 4 3 360 355 353 350 348 346 351 1 353 2 6 4 4 11 9 12 13 17 16 9 16 19 346 325 321 319 319 310 313 279 267 260 258 281 300
338 339 338 335 330 327 322 319 314 319 325 325 320 317 313 311 318 318 315 312 318 325 324 329 335 310 295 293 293 293 294 295 295 293 277 259 258 264